Location: Bennemühlen
(52.5740°N, 9.7135°E)
Time: 02:37:18
(UTC+00:00)

Vanguard 2 Rocket - Pass Details

Date: 22 February 2026
Orbit: 553 x 3287 km, 32.9° (Epoch: 5 March)

Event Time Altitude Azimuth Distance (km) Brightness Sun altitude
Rises 15:56:27 0° 268° (W) 6,752 12.8 6.3°
Reaches altitude 10° 16:03:26 10° 253° (WSW) 5,250 13.4 5.4°
Maximum altitude 16:11:28 17° 219° (SW) 3,945 11.4 4.3°
Drops below altitude 10° 16:17:39 10° 183° (S) 3,861 10.5 3.4°
Sets 16:21:38 0° 164° (SSE) 4,381 10.5 2.8°
